If you wish to contribute or participate in the discussions about articles you are invited to join SKYbrary as a registered user

 Actions

Hughenden Airport

From SKYbrary Wiki

YHUG
Airport
ICAO: YHUG – IATA: HGD
Summary
Name Hughenden Airport
Region Asia and Pacific
Territory Australia AU.gif
Location Hughenden, Queensland
Serving Hughenden
Elevation 317.906 m
1,043 ft
1,043 ft317.906 m
Type small airport
Coordinates 20° 48' 54.00" S, 144° 13' 30.00" E
Runways
Designator Length Width Surface ROPS
6/24 930 m3,051.181 ft
18 m59.055 ft
GVL /
12/30 1644 m5,393.701 ft
30 m98.425 ft
ASP /


METAR
Observation YHUG 070100Z AUTO 17006KT 9999 // NCD 37/03 Q1011
Station Hughenden Airport
Date/Time 07 December 2019 01:00:00
Wind direction 170°
Wind speed 06 kts
Lowest cloud amount no clouds detected
Temperature 37°C
Dew point 3°C
Humidity 12%
QNH 1011 hPa
Weather condition n/a